NFA22 EKKA-EKRK

Flight info

Callsign NFA22
Flight time 0h 24m
Altitude 21000
Route INTET T55 TESPI N603 TNO
Aircraft C750/M-SBDE3FGHRWXY/S

Departure

Time 2026-05-08 19:13
Airport Midtjyllands Airport / Air Base Karup (EKKA)

Arrival

Time 2026-05-08 19:38
Airport Copenhagen Roskilde Airport (EKRK)
Time Latitude Longitude Altitude Speed Heading
2026-05-08 18:55 56.31116 9.11779 175 ft 0 kts 158°
2026-05-08 19:08 56.31098 9.11777 175 ft 6 kts 192°
2026-05-08 19:08 56.31025 9.11762 175 ft 14 kts 174°
2026-05-08 19:08 56.30911 9.11861 175 ft 21 kts 150°
2026-05-08 19:08 56.30784 9.11977 175 ft 18 kts 186°
2026-05-08 19:09 56.30707 9.11809 175 ft 19 kts 253°
2026-05-08 19:09 56.30632 9.11606 175 ft 21 kts 233°
2026-05-08 19:09 56.30524 9.11407 175 ft 24 kts 217°
2026-05-08 19:09 56.30384 9.11241 175 ft 25 kts 216°
2026-05-08 19:10 56.30234 9.11043 174 ft 28 kts 216°
2026-05-08 19:10 56.30066 9.10842 175 ft 29 kts 214°
2026-05-08 19:10 56.29934 9.10640 176 ft 20 kts 250°
2026-05-08 19:10 56.29925 9.10384 176 ft 22 kts 270°
2026-05-08 19:11 56.29924 9.10085 176 ft 25 kts 269°
2026-05-08 19:11 56.29921 9.09749 173 ft 29 kts 269°
2026-05-08 19:11 56.29917 9.09377 174 ft 31 kts 269°
2026-05-08 19:11 56.29915 9.08978 176 ft 32 kts 270°
2026-05-08 19:12 56.29912 9.08601 176 ft 21 kts 269°
2026-05-08 19:12 56.29854 9.08491 175 ft 15 kts 178°
2026-05-08 19:12 56.29760 9.08492 173 ft 10 kts 176°
2026-05-08 19:12 56.29729 9.08585 173 ft 10 kts 90°
2026-05-08 19:13 56.29727 9.08733 173 ft 17 kts 91°
2026-05-08 19:13 56.29728 9.09580 177 ft 122 kts 90°
2026-05-08 19:13 56.29739 9.11214 774 ft 135 kts 91°
2026-05-08 19:13 56.29594 9.12935 1400 ft 144 kts 113°
2026-05-08 19:14 56.29322 9.14725 2063 ft 160 kts 101°
2026-05-08 19:14 56.29152 9.16814 2508 ft 182 kts 108°
2026-05-08 19:14 56.28691 9.19127 2972 ft 205 kts 114°
2026-05-08 19:14 56.28160 9.21493 3822 ft 204 kts 113°
2026-05-08 19:15 56.27637 9.23887 4629 ft 209 kts 112°
2026-05-08 19:15 56.27076 9.26481 5139 ft 237 kts 112°
2026-05-08 19:15 56.26444 9.29390 5802 ft 257 kts 112°
2026-05-08 19:15 56.25792 9.32400 6909 ft 260 kts 111°
2026-05-08 19:16 56.25129 9.35450 8026 ft 264 kts 112°
2026-05-08 19:16 56.24450 9.38557 9175 ft 270 kts 113°
2026-05-08 19:16 56.23756 9.41731 10208 ft 275 kts 113°
2026-05-08 19:16 56.23029 9.45061 10654 ft 299 kts 113°
2026-05-08 19:17 56.22229 9.48709 10862 ft 327 kts 112°
2026-05-08 19:17 56.21370 9.52634 11289 ft 343 kts 112°
2026-05-08 19:17 56.20497 9.56621 12150 ft 345 kts 113°
2026-05-08 19:17 56.19606 9.60665 12854 ft 352 kts 113°
2026-05-08 19:18 56.18695 9.64788 13586 ft 358 kts 112°
2026-05-08 19:18 56.17771 9.68969 14240 ft 364 kts 112°
2026-05-08 19:18 56.16832 9.73216 14883 ft 369 kts 112°
2026-05-08 19:18 56.15879 9.77508 15581 ft 372 kts 112°
2026-05-08 19:19 56.14913 9.81843 16242 ft 377 kts 112°
2026-05-08 19:19 56.13936 9.86230 16942 ft 382 kts 112°
2026-05-08 19:19 56.12942 9.90684 17632 ft 387 kts 112°
2026-05-08 19:19 56.11934 9.95184 18372 ft 391 kts 112°
2026-05-08 19:20 56.10913 9.99735 19056 ft 396 kts 112°
2026-05-08 19:20 56.10579 10.01221 19266 ft 397 kts 112°
2026-05-08 19:20 56.08848 10.08915 20409 ft 404 kts 112°
2026-05-08 19:20 56.07794 10.13578 20998 ft 408 kts 112°
2026-05-08 19:21 56.06700 10.18414 21040 ft 428 kts 112°
2026-05-08 19:21 56.05565 10.23423 21044 ft 438 kts 112°
2026-05-08 19:21 56.04420 10.28472 21022 ft 436 kts 112°
2026-05-08 19:21 56.03305 10.33373 20533 ft 416 kts 112°
2026-05-08 19:22 56.02224 10.38082 19995 ft 403 kts 112°
2026-05-08 19:22 56.01173 10.42664 19474 ft 395 kts 112°
2026-05-08 19:22 56.00485 10.45672 19130 ft 395 kts 112°
2026-05-08 19:22 55.99443 10.50217 18606 ft 394 kts 112°
2026-05-08 19:23 55.98405 10.54722 18058 ft 390 kts 112°
2026-05-08 19:23 55.97376 10.59175 17544 ft 387 kts 112°
2026-05-08 19:23 55.96354 10.63602 17034 ft 385 kts 113°
2026-05-08 19:23 55.95336 10.67997 16526 ft 380 kts 113°
2026-05-08 19:24 55.94332 10.72328 16029 ft 376 kts 113°
2026-05-08 19:24 55.93335 10.76603 15534 ft 372 kts 113°
2026-05-08 19:24 55.92343 10.80851 15045 ft 368 kts 113°
2026-05-08 19:24 55.91366 10.85042 14560 ft 364 kts 113°
2026-05-08 19:25 55.90398 10.89185 14084 ft 360 kts 113°
2026-05-08 19:25 55.89437 10.93283 13584 ft 356 kts 113°
2026-05-08 19:25 55.88484 10.97338 13112 ft 353 kts 114°
2026-05-08 19:25 55.87538 11.01353 12649 ft 350 kts 114°
2026-05-08 19:26 55.86600 11.05319 12194 ft 347 kts 114°
2026-05-08 19:26 55.85665 11.09282 11733 ft 345 kts 114°
2026-05-08 19:26 55.84741 11.13197 11279 ft 340 kts 114°
2026-05-08 19:26 55.83847 11.16965 10839 ft 320 kts 114°
2026-05-08 19:27 55.83007 11.20499 10427 ft 300 kts 114°
2026-05-08 19:27 55.82217 11.23823 10025 ft 283 kts 114°
2026-05-08 19:27 55.81468 11.26970 9647 ft 271 kts 114°
2026-05-08 19:27 55.80737 11.30026 9301 ft 266 kts 114°
2026-05-08 19:28 55.80015 11.33040 8951 ft 264 kts 114°
2026-05-08 19:28 55.79296 11.36047 8607 ft 264 kts 114°
2026-05-08 19:28 55.78577 11.39051 8258 ft 264 kts 114°
2026-05-08 19:28 55.77869 11.42023 7916 ft 264 kts 113°
2026-05-08 19:29 55.77119 11.44978 7557 ft 261 kts 117°
2026-05-08 19:29 55.76323 11.47859 7216 ft 258 kts 115°
2026-05-08 19:29 55.75582 11.50737 6863 ft 255 kts 115°
2026-05-08 19:29 55.74832 11.53581 6490 ft 253 kts 116°
2026-05-08 19:30 55.74072 11.56370 6150 ft 249 kts 116°
2026-05-08 19:30 55.73329 11.59131 5823 ft 247 kts 115°
2026-05-08 19:30 55.72597 11.61880 5498 ft 246 kts 115°
2026-05-08 19:30 55.71864 11.64610 5174 ft 244 kts 116°
2026-05-08 19:31 55.71133 11.67319 4840 ft 243 kts 116°
2026-05-08 19:31 55.70405 11.70018 4514 ft 242 kts 116°
2026-05-08 19:31 55.69725 11.72740 4201 ft 241 kts 112°
2026-05-08 19:31 55.69068 11.75467 3885 ft 240 kts 114°
2026-05-08 19:32 55.68338 11.78126 3564 ft 240 kts 116°
2026-05-08 19:32 55.67613 11.80672 3247 ft 220 kts 116°
2026-05-08 19:32 55.66972 11.82965 2991 ft 196 kts 116°
2026-05-08 19:32 55.66400 11.85014 2993 ft 179 kts 115°
2026-05-08 19:33 55.65854 11.86977 3000 ft 177 kts 115°
2026-05-08 19:33 55.65291 11.89005 2996 ft 192 kts 115°
2026-05-08 19:33 55.64689 11.91172 2765 ft 199 kts 115°
2026-05-08 19:33 55.64072 11.93382 2483 ft 199 kts 115°
2026-05-08 19:34 55.63491 11.95469 2203 ft 182 kts 115°
2026-05-08 19:34 55.62932 11.97441 1965 ft 167 kts 117°
2026-05-08 19:34 55.62165 11.98762 1842 ft 152 kts 147°
2026-05-08 19:34 55.61107 11.99220 1781 ft 161 kts 168°
2026-05-08 19:35 55.59986 11.99464 1745 ft 163 kts 166°
2026-05-08 19:35 55.58891 11.99950 1615 ft 163 kts 154°
2026-05-08 19:35 55.57923 12.00884 1448 ft 159 kts 142°
2026-05-08 19:35 55.57116 12.02062 1292 ft 139 kts 131°
2026-05-08 19:36 55.56594 12.03348 1118 ft 122 kts 119°
2026-05-08 19:36 55.56260 12.04671 990 ft 115 kts 109°
2026-05-08 19:36 55.56094 12.06048 918 ft 115 kts 98°
2026-05-08 19:36 55.56088 12.07463 862 ft 118 kts 87°
2026-05-08 19:37 55.56241 12.08923 740 ft 122 kts 77°
2026-05-08 19:37 55.56558 12.10339 592 ft 128 kts 64°
2026-05-08 19:37 55.57102 12.11578 373 ft 132 kts 40°
2026-05-08 19:37 55.57881 12.12430 163 ft 129 kts 33°
2026-05-08 19:38 55.58579 12.13174 145 ft 99 kts 31°
2026-05-08 19:38 55.58929 12.13541 147 ft 28 kts 31°
2026-05-08 19:38 55.59035 12.13530 148 ft 14 kts 328°
2026-05-08 19:38 55.59063 12.13499 148 ft 0 kts 325°
2026-05-08 19:39 55.59072 12.13488 148 ft 3 kts 325°
2026-05-08 19:39 55.59074 12.13485 148 ft 2 kts 325°
2026-05-08 19:40 55.59119 12.13428 149 ft 12 kts 311°
2026-05-08 19:40 55.59077 12.13303 149 ft 18 kts 210°
2026-05-08 19:40 55.58954 12.13196 147 ft 19 kts 211°
2026-05-08 19:40 55.58904 12.13084 145 ft 12 kts 313°
2026-05-08 19:41 55.58959 12.12921 146 ft 19 kts 298°